Location: Kalberh�ni
(46.4610°N, 7.2453°E)
Time: 08:22:57
(UTC+00:00)

Meteor 1-4 Rocket - Visible Passes

Search period start: 28 October 2021 00:00
Search period end: 07 November 2021 00:00
Orbit: 445 x 498 km, 81.2° (Epoch: 27 October)

Date Brightness Start Highest point End Pass type
(mag) Time Alt. Az. Time Alt. Az. Time Alt. Az.
28 Oct 2.3 04:26:50 10° NNW 04:30:21 73° W 04:33:52 10° S visible
28 Oct 4.7 18:12:26 10° SW 18:15:22 25° WNW 18:18:18 10° NNW visible
29 Oct 2.9 04:00:26 36° NNE 04:01:40 61° ENE 04:05:11 10° SSE visible
29 Oct 3.6 17:43:17 10° SSW 17:46:35 44° WNW 17:49:55 10° N visible
30 Oct 4.5 03:34:07 26° ESE 03:34:07 26° ESE 03:36:12 10° SE visible
30 Oct 4.2 05:08:21 15° WSW 05:08:21 15° WSW 05:09:47 10° SW visible
30 Oct 2.4 17:14:26 10° SSW 17:17:52 84° W 17:21:20 10° N visible
31 Oct 4.9 04:41:53 11° SSW 04:41:53 11° SSW 04:42:05 10° SSW visible
31 Oct 2.6 16:45:52 10° S 16:49:12 51° E 16:52:33 10° NNE visible
31 Oct 5.8 18:23:31 10° W 18:24:30 11° WNW 18:25:28 10° NW visible
01 Nov 5.4 17:53:10 10° WSW 17:55:35 18° WNW 17:58:02 10° NNW visible
02 Nov 4.5 17:23:42 10° SW 17:26:45 29° WNW 17:29:49 10° N visible
03 Nov 3.3 16:54:36 10° SSW 16:57:58 52° WNW 17:01:21 10° N visible
05 Nov 5.6 17:34:12 10° W 17:35:46 13° WNW 17:37:21 10° NW visible
06 Nov 5.1 17:04:13 10° WSW 17:06:52 20° WNW 17:09:32 10° NNW visible
